Weather History for Sitka, AK

Change the Weather History Date:

Wednesday, January 15, 2014

  Actual Average Record
Temperature  
Mean Temperature 44 °F -  
Max Temperature 48 °F 37 °F 58 °F (1981)
Min Temperature 41 °F 29 °F 0 °F (1971)
Degree Days  
Heating Degree Days 22    
Moisture  
Dew Point 38 °F    
Average Humidity 83    
Maximum Humidity 93    
Minimum Humidity 68    
Precipitation  
Precipitation 0.24 in - - ()
Sea Level Pressure  
Sea Level Pressure 30.26 in    
Wind  
Wind Speed 10 mph (SE)    
Max Wind Speed 16 mph    
Max Gust Speed 23 mph    
Visibility 9 miles    
Events Rain    
Averages and records for this station are not official NWS values.
T = Trace of Precipitation, MM = Missing Value Source: NWS Daily Summary

Daily Weather History Graph

Daily Weather History Graph

Search for Another Location

Airport:

Trip Planner

Search our weather history database for the weather conditions in past years. The results will help you decide how hot, cold, wet, or windy it might be!

Date:

Astronomy

Jan. 15, 2014 Rise Set
Actual Time 8:28 AM AKST 3:54 PM AKST
Civil Twilight 7:42 AM AKST 4:40 PM AKST
Nautical Twilight 6:53 AM AKST 5:29 PM AKST
Astronomical Twilight 6:07 AM AKST 6:15 PM AKST
Moon 4:12 PM AKST (1/15) 7:37 AM AKST (1/15)
Length of Visible Light 8h 58m
Length of Day
7h 25m
Full, 100% of the Moon is Illuminated
Jan 15
Full
Jan 15
Full
Jan 23
Last Quarter
Jan 30
New
Feb 6
First Quarter

Hourly Weather History & Observations

Time (AKST) Temp. Windchill Dew Point Humidity Pressure Visibility Wind Dir Wind Speed Gust Speed Precip Events Conditions
12:53 AM 44.1 °F 38.6 °F 39.9 °F 85% 30.22 in 7.0 mi SW 10.4 mph - 0.00 in Rain Light Rain
1:05 AM 44.1 °F 39.0 °F 39.9 °F 85% 30.22 in 7.0 mi SSW 9.2 mph - 0.00 in   Overcast
1:53 AM 44.1 °F 39.5 °F 39.9 °F 85% 30.24 in 4.0 mi South 8.1 mph - 0.01 in Rain Light Rain
2:53 AM 43.0 °F 37.7 °F 39.9 °F 89% 30.25 in 6.0 mi South 9.2 mph - 0.01 in Rain Light Rain
3:53 AM 43.0 °F 36.8 °F 41.0 °F 93% 30.27 in 5.0 mi South 11.5 mph - 0.03 in Rain Light Rain
4:05 AM 42.1 °F 36.6 °F 39.0 °F 89% 30.27 in 7.0 mi SSE 9.2 mph - 0.00 in Rain Light Rain
4:12 AM 43.0 °F 36.8 °F 41.0 °F 93% 30.27 in 6.0 mi SSE 11.5 mph - 0.00 in Rain Light Rain
4:53 AM 42.1 °F 36.6 °F 39.0 °F 89% 30.27 in 9.0 mi ESE 9.2 mph - 0.02 in Rain Light Rain
5:31 AM 41.0 °F 34.3 °F 37.9 °F 89% 30.29 in 9.0 mi SSE 11.5 mph - 0.02 in Rain Light Rain
5:53 AM 41.0 °F 34.3 °F 37.0 °F 86% 30.29 in 9.0 mi SSE 11.5 mph - 0.05 in Rain Light Rain
6:15 AM 41.0 °F 33.1 °F 37.9 °F 89% 30.29 in 8.0 mi SSE 15.0 mph - 0.02 in Rain Light Rain
6:23 AM 41.0 °F 34.3 °F 37.9 °F 89% 30.29 in 9.0 mi SE 11.5 mph 23.0 mph 0.02 in Rain Light Rain
6:53 AM 41.0 °F 34.7 °F 37.9 °F 89% 30.30 in 9.0 mi SE 10.4 mph 21.9 mph 0.04 in Rain Light Rain
7:51 AM 41.0 °F 35.8 °F 37.4 °F 87% 30.32 in 5.0 mi ESE 8.1 mph - 0.05 in Rain Light Rain
7:53 AM 41.0 °F 35.2 °F 37.0 °F 86% 30.32 in 5.0 mi ESE 9.2 mph - 0.05 in Rain Light Rain
8:32 AM 41.0 °F 35.2 °F 37.0 °F 86% 30.30 in 10.0 mi ENE 9.2 mph - 0.00 in Rain Light Rain
8:53 AM 41.0 °F 34.3 °F 37.0 °F 86% 30.32 in 10.0 mi SE 11.5 mph - 0.00 in   Overcast
9:06 AM 42.1 °F 36.1 °F 36.0 °F 79% 30.33 in 10.0 mi SE 10.4 mph 20.7 mph N/A   Overcast
9:53 AM 43.0 °F 37.2 °F 36.0 °F 76% 30.33 in 10.0 mi ESE 10.4 mph - N/A   Overcast
10:02 AM 43.0 °F 36.4 °F 36.0 °F 76% 30.33 in 10.0 mi ESE 12.7 mph - N/A   Overcast
10:53 AM 43.0 °F 36.4 °F 37.0 °F 80% 30.34 in 10.0 mi ESE 12.7 mph - N/A   Overcast
11:53 AM 44.1 °F 41.5 °F 37.0 °F 76% 30.34 in 9.0 mi ESE 4.6 mph - N/A   Overcast
12:53 PM 44.1 °F 38.1 °F 37.0 °F 76% 30.32 in 10.0 mi SE 11.5 mph - N/A   Overcast
1:53 PM 44.1 °F 39.0 °F 37.0 °F 76% 30.30 in 10.0 mi SE 9.2 mph - N/A   Overcast
2:53 PM 45.0 °F 39.3 °F 35.1 °F 68% 30.29 in 10.0 mi SE 11.5 mph - N/A   Overcast
3:53 PM 44.1 °F 38.1 °F 36.0 °F 73% 30.28 in 10.0 mi SE 11.5 mph - N/A   Scattered Clouds
4:53 PM 44.1 °F 38.1 °F 35.1 °F 71% 30.26 in 10.0 mi ESE 11.5 mph - N/A   Partly Cloudy
5:53 PM 42.1 °F 36.6 °F 37.9 °F 85% 30.23 in 10.0 mi NW 9.2 mph - N/A   Mostly Cloudy
6:53 PM 42.1 °F - 37.9 °F 85% 30.20 in 10.0 mi Calm Calm - N/A   Overcast
7:53 PM 41.0 °F - 39.0 °F 93% 30.17 in 10.0 mi Calm Calm - N/A   Overcast
8:53 PM 41.0 °F 39.0 °F 39.0 °F 93% 30.16 in 8.0 mi Variable 3.5 mph - 0.01 in Rain Light Rain
9:53 PM 42.1 °F - 39.0 °F 89% 30.13 in 10.0 mi Calm Calm - 0.01 in Rain Light Rain
10:53 PM 46.0 °F 39.3 °F 37.9 °F 73% 30.09 in 10.0 mi ESE 16.1 mph - 0.01 in Rain Light Rain
11:53 PM 48.9 °F - 39.0 °F 69% 30.07 in 10.0 mi ESE 15.0 mph - 0.00 in   Overcast